| time (UTC) | temp F | wind direction | speed MPH | gust MPH | rain 1hr in | rain 24hr in | rain mn in | humidity % | barometer mb |
| 20260505074505 | 55 | 89 | 0.0 | 1.0 | 0.00 | 0.00 | 0.00 | 85 | 1015.1 |
| 20260505073605 | 55 | 109 | 0.0 | 1.0 | 0.00 | 0.00 | 0.00 | 85 | 1015.1 |
| 20260505072704 | 56 | 94 | 0.0 | 1.0 | 0.00 | 0.00 | 0.00 | 83 | 1015.0 |
| 20260505071804 | 57 | 0 | 0.0 | 0.0 | 0.00 | 0.00 | 0.00 | 81 | 1015.0 |
| 20260505070905 | 58 | 125 | 0.0 | 3.0 | 0.00 | 0.00 | 0.00 | 80 | 1015.0 |
| 20260505070005 | 58 | 114 | 0.0 | 3.0 | 0.00 | 0.00 | 0.00 | 79 | 1014.9 |
| 20260505065404 | 58 | 98 | 0.0 | 3.0 | 0.00 | 0.00 | 0.00 | 79 | 1014.9 |
| 20260505064504 | 58 | 98 | 0.0 | 4.0 | 0.00 | 0.00 | 0.00 | 78 | 1014.9 |
| 20260505063604 | 58 | 129 | 0.0 | 2.0 | 0.00 | 0.00 | 0.00 | 78 | 1014.9 |
| 20260505062725 | 59 | 149 | 1.0 | 3.0 | 0.00 | 0.00 | 0.00 | 77 | 1014.9 |
| 20260505061804 | 59 | 128 | 1.0 | 4.0 | 0.00 | 0.00 | 0.00 | 77 | 1014.9 |
| 20260505060904 | 59 | 136 | 1.0 | 7.0 | 0.00 | 0.00 | 0.00 | 76 | 1015.0 |
| 20260505060025 | 59 | 142 | 1.0 | 4.0 | 0.00 | 0.00 | 0.00 | 76 | 1015.0 |
| 20260505055404 | 59 | 141 | 1.0 | 4.0 | 0.00 | 0.00 | 0.00 | 76 | 1015.0 |
| 20260505054504 | 60 | 123 | 1.0 | 4.0 | 0.00 | 0.00 | 0.00 | 75 | 1015.1 |
| 20260505053604 | 60 | 125 | 1.0 | 4.0 | 0.00 | 0.00 | 0.00 | 75 | 1015.1 |
| 20260505052704 | 60 | 130 | 1.0 | 4.0 | 0.00 | 0.00 | 0.00 | 74 | 1015.2 |
| 20260505051807 | 60 | 131 | 1.0 | 5.0 | 0.00 | 0.00 | 0.00 | 73 | 1015.3 |
| 20260505050905 | 60 | 134 | 1.0 | 3.0 | 0.00 | 0.00 | 0.00 | 72 | 1015.4 |
| 20260505040903 | 62 | 152 | 1.0 | 5.0 | 0.00 | 0.00 | 0.00 | 68 | 1015.3 |
| 20260505040005 | 62 | 125 | 1.0 | 5.0 | 0.00 | 0.00 | 0.00 | 67 | 1015.3 |
| 20260505035404 | 62 | 117 | 1.0 | 5.0 | 0.00 | 0.00 | 0.00 | 66 | 1015.3 |
| 20260505034504 | 62 | 110 | 0.0 | 3.0 | 0.00 | 0.00 | 0.00 | 64 | 1015.4 |
| 20260505033604 | 60 | 111 | 1.0 | 3.0 | 0.00 | 0.00 | 0.00 | 67 | 1015.5 |
| 20260505032725 | 61 | 121 | 0.0 | 3.0 | 0.00 | 0.00 | 0.00 | 70 | 1015.3 |
| 20260505031804 | 62 | 131 | 0.0 | 2.0 | 0.00 | 0.00 | 0.00 | 66 | 1015.3 |
| 20260505030904 | 62 | 114 | 0.0 | 1.0 | 0.00 | 0.00 | 0.00 | 68 | 1015.4 |
| 20260505030004 | 62 | 116 | 0.0 | 4.0 | 0.00 | 0.00 | 0.00 | 65 | 1015.3 |
| 20260505025422 | 62 | 111 | 0.0 | 1.0 | 0.00 | 0.00 | 0.00 | 65 | 1015.3 |
| 20260505024504 | 62 | 131 | 0.0 | 1.0 | 0.00 | 0.00 | 0.00 | 66 | 1015.2 |
| 20260505023604 | 61 | 129 | 0.0 | 1.0 | 0.00 | 0.00 | 0.00 | 69 | 1015.2 |
| 20260505022721 | 62 | 128 | 0.0 | 1.0 | 0.00 | 0.00 | 0.00 | 68 | 1015.2 |
| 20260505021804 | 62 | 118 | 0.0 | 1.0 | 0.00 | 0.00 | 0.00 | 67 | 1015.1 |
| 20260505020904 | 63 | 131 | 0.0 | 1.0 | 0.00 | 0.00 | 0.00 | 68 | 1015.1 |
| 20260505020005 | 64 | 135 | 0.0 | 2.0 | 0.00 | 0.00 | 0.00 | 62 | 1015.0 |
| 20260505015425 | 64 | 135 | 0.0 | 2.0 | 0.00 | 0.00 | 0.00 | 62 | 1015.0 |
| 20260505014505 | 64 | 121 | 0.0 | 2.0 | 0.00 | 0.00 | 0.00 | 61 | 1014.8 |
| 20260505013604 | 65 | 123 | 0.0 | 1.0 | 0.00 | 0.00 | 0.00 | 61 | 1014.8 |
| 20260505012738 | 66 | 106 | 0.0 | 1.0 | 0.00 | 0.00 | 0.00 | 61 | 1014.7 |
| 20260505011804 | 66 | 123 | 0.0 | 2.0 | 0.00 | 0.00 | 0.00 | 57 | 1014.6 |
| 20260505010904 | 67 | 114 | 0.0 | 2.0 | 0.00 | 0.00 | 0.00 | 57 | 1014.6 |
| 20260505010009 | 67 | 127 | 0.0 | 2.0 | 0.00 | 0.00 | 0.00 | 55 | 1014.5 |
| 20260505005404 | 67 | 96 | 0.0 | 1.0 | 0.00 | 0.00 | 0.00 | 55 | 1014.5 |
| 20260505004525 | 68 | 126 | 0.0 | 3.0 | 0.00 | 0.00 | 0.00 | 56 | 1014.4 |
| 20260505003604 | 68 | 124 | 0.0 | 4.0 | 0.00 | 0.00 | 0.00 | 54 | 1014.3 |
| 20260505002704 | 68 | 121 | 0.0 | 2.0 | 0.00 | 0.00 | 0.00 | 53 | 1014.2 |
| 20260505001804 | 68 | 116 | 0.0 | 3.0 | 0.00 | 0.00 | 0.00 | 52 | 1014.1 |
| 20260505000925 | 68 | 143 | 0.0 | 1.0 | 0.00 | 0.00 | 0.00 | 55 | 1014.1 |
| 20260505000005 | 69 | 106 | 0.0 | 2.0 | 0.00 | 0.00 | 0.00 | 49 | 1014.0 |
| 20260504235404 | 69 | 118 | 0.0 | 1.0 | 0.00 | 0.00 | 0.00 | 51 | 1013.9 |
| 20260504234505 | 70 | 248 | 0.0 | 1.0 | 0.00 | 0.00 | 0.00 | 51 | 1013.7 |
| 20260504233632 | 72 | 249 | 0.0 | 1.0 | 0.00 | 0.00 | 0.00 | 51 | 1013.7 |
| 20260504232704 | 74 | 250 | 0.0 | 1.0 | 0.00 | 0.00 | 0.00 | 45 | 1013.6 |
| 20260504231803 | 75 | 0 | 0.0 | 0.0 | 0.00 | 0.00 | 0.00 | 45 | 1013.6 |
| 20260504230904 | 76 | 250 | 0.0 | 1.0 | 0.00 | 0.00 | 0.00 | 38 | 1013.5 |
| 20260504230005 | 76 | 263 | 0.0 | 2.0 | 0.00 | 0.00 | 0.00 | 36 | 1013.7 |
| 20260504225405 | 76 | 281 | 1.0 | 3.0 | 0.00 | 0.00 | 0.00 | 35 | 1013.6 |
| 20260504224504 | 77 | 249 | 2.0 | 6.0 | 0.00 | 0.00 | 0.00 | 38 | 1013.7 |
| 20260504223604 | 78 | 245 | 1.0 | 6.0 | 0.00 | 0.00 | 0.00 | 37 | 1013.8 |
| 20260504222704 | 78 | 194 | 2.0 | 6.0 | 0.00 | 0.00 | 0.00 | 39 | 1013.9 |
| 20260504221804 | 78 | 264 | 1.0 | 6.0 | 0.00 | 0.00 | 0.00 | 38 | 1013.9 |
| 20260504220949 | 78 | 151 | 2.0 | 5.0 | 0.00 | 0.00 | 0.00 | 38 | 1013.8 |
| 20260504220005 | 78 | 229 | 2.0 | 5.0 | 0.00 | 0.00 | 0.00 | 38 | 1013.7 |
| 20260504215404 | 79 | 231 | 2.0 | 6.0 | 0.00 | 0.00 | 0.00 | 38 | 1013.7 |
| 20260504214505 | 79 | 248 | 1.0 | 7.0 | 0.00 | 0.00 | 0.00 | 36 | 1013.6 |
| 20260504213604 | 80 | 142 | 2.0 | 7.0 | 0.00 | 0.00 | 0.00 | 35 | 1013.6 |
| 20260504212704 | 80 | 257 | 2.0 | 6.0 | 0.00 | 0.00 | 0.00 | 37 | 1013.6 |
| 20260504211804 | 80 | 130 | 2.0 | 9.0 | 0.00 | 0.00 | 0.00 | 36 | 1013.6 |
| 20260504210904 | 80 | 206 | 2.0 | 8.0 | 0.00 | 0.00 | 0.00 | 33 | 1013.6 |
| 20260504210004 | 80 | 262 | 2.0 | 7.0 | 0.00 | 0.00 | 0.00 | 36 | 1013.7 |
| 20260504205425 | 80 | 233 | 2.0 | 7.0 | 0.00 | 0.00 | 0.00 | 33 | 1013.8 |
| 20260504204505 | 79 | 277 | 2.0 | 9.0 | 0.00 | 0.00 | 0.00 | 35 | 1013.8 |
| 20260504203604 | 79 | 269 | 2.0 | 9.0 | 0.00 | 0.00 | 0.00 | 35 | 1013.8 |
| 20260504202704 | 80 | 265 | 2.0 | 8.0 | 0.00 | 0.00 | 0.00 | 34 | 1013.9 |
| 20260504201804 | 79 | 263 | 3.0 | 7.0 | 0.00 | 0.00 | 0.00 | 33 | 1013.9 |
| 20260504200904 | 79 | 252 | 2.0 | 8.0 | 0.00 | 0.00 | 0.00 | 33 | 1014.0 |
| 20260504200004 | 79 | 253 | 2.0 | 6.0 | 0.00 | 0.00 | 0.00 | 33 | 1014.2 |
| 20260504195404 | 79 | 180 | 3.0 | 8.0 | 0.00 | 0.00 | 0.00 | 33 | 1014.2 |
| 20260504194504 | 79 | 132 | 2.0 | 11.0 | 0.00 | 0.00 | 0.00 | 35 | 1014.3 |
| 20260504193604 | 78 | 203 | 3.0 | 8.0 | 0.00 | 0.00 | 0.00 | 38 | 1014.5 |
| 20260504192704 | 79 | 134 | 3.0 | 10.0 | 0.00 | 0.00 | 0.00 | 35 | 1014.6 |
| 20260504191825 | 79 | 112 | 2.0 | 8.0 | 0.00 | 0.00 | 0.00 | 39 | 1014.8 |
| 20260504190904 | 77 | 240 | 3.0 | 8.0 | 0.00 | 0.00 | 0.00 | 38 | 1015.0 |
| 20260504190004 | 77 | 238 | 3.0 | 10.0 | 0.00 | 0.00 | 0.00 | 39 | 1015.0 |
| 20260504185403 | 77 | 268 | 3.0 | 8.0 | 0.00 | 0.00 | 0.00 | 41 | 1015.1 |
| 20260504184508 | 77 | 200 | 2.0 | 5.0 | 0.00 | 0.00 | 0.00 | 41 | 1015.2 |
| 20260504183605 | 77 | 244 | 3.0 | 7.0 | 0.00 | 0.00 | 0.00 | 41 | 1015.3 |
| 20260504182725 | 77 | 248 | 3.0 | 7.0 | 0.00 | 0.00 | 0.00 | 44 | 1015.4 |
| 20260504181803 | 77 | 181 | 2.0 | 7.0 | 0.00 | 0.00 | 0.00 | 42 | 1015.6 |
| 20260504180904 | 77 | 246 | 2.0 | 7.0 | 0.00 | 0.00 | 0.00 | 44 | 1015.5 |
| 20260504180004 | 76 | 294 | 2.0 | 5.0 | 0.00 | 0.00 | 0.00 | 43 | 1015.7 |
| 20260504175403 | 75 | 302 | 4.0 | 10.0 | 0.00 | 0.00 | 0.00 | 47 | 1015.7 |
| 20260504174525 | 75 | 269 | 3.0 | 10.0 | 0.00 | 0.00 | 0.00 | 46 | 1015.9 |
| 20260504173604 | 76 | 183 | 3.0 | 6.0 | 0.00 | 0.00 | 0.00 | 40 | 1016.0 |
| 20260504172703 | 75 | 183 | 2.0 | 9.0 | 0.00 | 0.00 | 0.00 | 41 | 1016.0 |
| 20260504171826 | 74 | 275 | 3.0 | 8.0 | 0.00 | 0.00 | 0.00 | 50 | 1016.1 |
| 20260504170905 | 73 | 288 | 4.0 | 8.0 | 0.00 | 0.00 | 0.00 | 44 | 1016.2 |
| 20260504150924 | 69 | 258 | 3.0 | 12.0 | 0.00 | 0.00 | 0.00 | 51 | 1017.3 |
| 20260504140903 | 64 | 265 | 3.0 | 10.0 | 0.00 | 0.00 | 0.00 | 66 | 1017.4 |
| 20260504081805 | 48 | 0 | 0.0 | 0.0 | 0.00 | 0.00 | 0.00 | 88 | 1016.6 |
| 20260504080903 | 48 | 0 | 0.0 | 0.0 | 0.00 | 0.00 | 0.00 | 88 | 1016.5 |